�������l�o���
Date,Time,MP-1(��Sv/h),MP-2(��Sv/h),MP-3(��Sv/h),MP-4(��Sv/h),MP-5(��Sv/h),MP-6(��Sv/h),MP-7(��Sv/h),MP-8(��Sv/h),����,����(m/s),���J
2022/06/11,00:00,0.553,0.813,0.519,0.983,0.690,0.339,0.579,0.551,�k��,1.1,��
2022/06/11,00:10,0.553,0.812,0.518,0.984,0.689,0.339,0.580,0.551,�k��,0.9,��
2022/06/11,00:20,0.554,0.814,0.519,0.986,0.691,0.341,0.581,0.551,-,CALM,��
2022/06/11,00:30,0.554,0.813,0.519,0.986,0.690,0.338,0.579,0.551,-,CALM,��
2022/06/11,00:40,0.553,0.815,0.518,0.986,0.689,0.340,0.582,0.551,��쐼,1.2,��
2022/06/11,00:50,0.555,0.814,0.519,0.985,0.690,0.339,0.579,0.550,�k��,0.6,��
2022/06/11,01:00,0.553,0.815,0.518,0.986,0.688,0.339,0.580,0.552,���k��,0.6,��
2022/06/11,01:10,0.553,0.814,0.519,0.985,0.690,0.339,0.581,0.552,-,CALM,��
2022/06/11,01:20,0.556,0.813,0.518,0.983,0.690,0.340,0.581,0.551,��,2.9,��
2022/06/11,01:30,0.553,0.813,0.519,0.986,0.691,0.340,0.580,0.550,��쐼,1.5,��
2022/06/11,01:40,0.553,0.814,0.520,0.985,0.690,0.339,0.580,0.552,-,CALM,��
2022/06/11,01:50,0.555,0.813,0.518,0.987,0.690,0.341,0.580,0.553,���쓌,0.6,��
2022/06/11,02:00,0.555,0.812,0.519,0.985,0.690,0.339,0.579,0.552,�쓌,0.8,��
2022/06/11,02:10,0.555,0.814,0.521,0.986,0.692,0.340,0.580,0.552,-,CALM,��
2022/06/11,02:20,0.555,0.813,0.519,0.986,0.692,0.340,0.581,0.552,-,CALM,��
2022/06/11,02:30,0.555,0.814,0.520,0.985,0.690,0.340,0.579,0.553,��,0.6,��
2022/06/11,02:40,0.555,0.815,0.520,0.986,0.692,0.340,0.580,0.552,��쓌,0.6,��
2022/06/11,02:50,0.554,0.814,0.519,0.985,0.691,0.339,0.580,0.552,-,CALM,�L
2022/06/11,03:00,0.556,0.814,0.519,0.987,0.691,0.340,0.580,0.551,-,CALM,��
2022/06/11,03:10,0.555,0.815,0.520,0.987,0.692,0.339,0.580,0.552,�k,0.8,�L
2022/06/11,03:20,0.554,0.815,0.519,0.986,0.691,0.340,0.580,0.553,�k��,1.5,��
2022/06/11,03:30,0.555,0.814,0.520,0.986,0.692,0.339,0.581,0.553,�k�k��,1.2,��
2022/06/11,03:40,0.554,0.814,0.519,0.985,0.692,0.342,0.579,0.552,�쓌,0.6,��
2022/06/11,03:50,0.554,0.814,0.521,0.987,0.690,0.339,0.579,0.553,�k��,0.9,��
2022/06/11,04:00,0.554,0.813,0.521,0.985,0.691,0.340,0.580,0.551,��,1.1,��
2022/06/11,04:10,0.555,0.812,0.519,0.985,0.692,0.340,0.581,0.552,�k�k��,2.3,��
2022/06/11,04:20,0.554,0.814,0.519,0.987,0.692,0.339,0.580,0.553,�k�k��,1.5,��
2022/06/11,04:30,0.556,0.813,0.520,0.986,0.691,0.340,0.579,0.552,�k�k��,1.2,��
2022/06/11,04:40,0.555,0.814,0.522,0.985,0.691,0.340,0.580,0.554,�k�k��,2.5,��
2022/06/11,04:50,0.555,0.813,0.521,0.987,0.693,0.340,0.579,0.552,�k�k��,0.6,��
2022/06/11,05:00,0.554,0.813,0.519,0.986,0.691,0.340,0.579,0.552,�k�k��,1.1,��
2022/06/11,05:10,0.555,0.812,0.521,0.989,0.690,0.339,0.579,0.553,�k,2.0,��
2022/06/11,05:20,0.554,0.814,0.521,0.987,0.691,0.338,0.579,0.552,�k,1.5,��
2022/06/11,05:30,0.554,0.815,0.521,0.985,0.690,0.340,0.580,0.553,�k�k��,2.2,��
2022/06/11,05:40,0.556,0.814,0.520,0.985,0.692,0.339,0.580,0.552,�k�k��,2.3,��
2022/06/11,05:50,0.553,0.813,0.519,0.985,0.692,0.341,0.579,0.553,�k�k��,1.4,��
2022/06/11,06:00,0.556,0.816,0.520,0.987,0.692,0.341,0.579,0.551,�k,1.2,�L
2022/06/11,06:10,0.556,0.815,0.522,0.986,0.692,0.339,0.578,0.554,�k�k��,1.5,�L
2022/06/11,06:20,0.556,0.815,0.520,0.987,0.692,0.341,0.580,0.553,�k�k��,1.1,��
2022/06/11,06:30,0.557,0.814,0.521,0.988,0.692,0.339,0.579,0.553,�k,1.4,��
2022/06/11,06:40,0.556,0.814,0.520,0.988,0.691,0.340,0.578,0.552,�k,1.2,��
2022/06/11,06:50,0.554,0.812,0.521,0.986,0.692,0.340,0.579,0.554,�k�k��,1.2,��
2022/06/11,07:00,0.557,0.816,0.521,0.986,0.693,0.341,0.579,0.553,�k�k��,1.2,��
2022/06/11,07:10,0.555,0.812,0.521,0.987,0.691,0.338,0.579,0.553,�k�k��,1.2,��
2022/06/11,07:20,0.556,0.815,0.520,0.987,0.693,0.339,0.579,0.551,�k��,0.9,��
2022/06/11,07:30,0.556,0.814,0.520,0.987,0.691,0.341,0.579,0.553,-,CALM,��
2022/06/11,07:40,0.556,0.816,0.521,0.985,0.691,0.339,0.580,0.552,-,CALM,��
2022/06/11,07:50,0.557,0.814,0.520,0.987,0.692,0.339,0.577,0.551,-,CALM,��
2022/06/11,08:00,0.557,0.813,0.521,0.989,0.691,0.339,0.579,0.551,-,CALM,��
2022/06/11,08:10,0.555,0.817,0.521,0.987,0.690,0.339,0.579,0.552,-,CALM,��
2022/06/11,08:20,0.555,0.813,0.521,0.986,0.692,0.340,0.578,0.552,�k,0.6,��
2022/06/11,08:30,0.554,0.815,0.520,0.987,0.692,0.339,0.579,0.551,�k��,1.2,��
2022/06/11,08:40,0.555,0.813,0.521,0.985,0.690,0.337,0.577,0.551,�k��,1.1,��
2022/06/11,08:50,0.555,0.814,0.520,0.989,0.691,0.339,0.579,0.553,�k�k��,1.4,��
2022/06/11,09:00,0.552,0.812,0.520,0.987,0.690,0.338,0.579,0.551,�k��,1.2,��
2022/06/11,09:10,0.553,0.813,0.521,0.987,0.690,0.338,0.578,0.550,���k��,1.2,��
2022/06/11,09:20,0.555,0.813,0.520,0.987,0.689,0.337,0.577,0.552,�k��,1.7,��
2022/06/11,09:30,0.554,0.813,0.519,0.987,0.689,0.338,0.578,0.551,�k��,2.0,��
2022/06/11,09:40,0.556,0.812,0.519,0.990,0.691,0.337,0.580,0.551,�k�k��,1.5,��
2022/06/11,09:50,0.552,0.814,0.517,0.987,0.688,0.338,0.578,0.551,�k�k��,1.5,��
2022/06/11,10:00,0.554,0.814,0.519,0.986,0.690,0.338,0.579,0.550,���k��,0.8,��
2022/06/11,10:10,0.554,0.810,0.519,0.985,0.691,0.337,0.581,0.549,�k��,1.4,��
2022/06/11,10:20,0.553,0.813,0.519,0.985,0.689,0.340,0.579,0.551,���k��,1.2,��
2022/06/11,10:30,0.553,0.813,0.518,0.987,0.690,0.338,0.580,0.550,�k��,1.9,��
2022/06/11,10:40,0.555,0.812,0.519,0.987,0.690,0.339,0.578,0.551,�k��,1.9,��
2022/06/11,10:50,0.554,0.813,0.518,0.986,0.693,0.339,0.578,0.550,�k��,1.7,��
2022/06/11,11:00,0.554,0.812,0.519,0.985,0.690,0.338,0.580,0.550,�k��,2.0,��
2022/06/11,11:10,0.554,0.815,0.519,0.989,0.692,0.338,0.581,0.550,�k��,2.3,��
2022/06/11,11:20,0.555,0.814,0.520,0.986,0.690,0.338,0.579,0.550,�k��,2.2,��
2022/06/11,11:30,0.555,0.814,0.519,0.987,0.691,0.338,0.578,0.551,�k��,2.5,��
2022/06/11,11:40,0.555,0.814,0.518,0.985,0.690,0.340,0.580,0.551,�k�k��,3.0,��
2022/06/11,11:50,0.556,0.814,0.520,0.987,0.691,0.339,0.579,0.551,���k��,2.2,��
2022/06/11,12:00,0.554,0.814,0.517,0.987,0.691,0.338,0.579,0.551,�k,2.0,��
2022/06/11,12:10,0.557,0.815,0.522,0.986,0.691,0.338,0.581,0.551,�k�k��,1.1,��
2022/06/11,12:20,0.556,0.817,0.519,0.988,0.691,0.339,0.581,0.549,���쓌,1.2,��
2022/06/11,12:30,0.557,0.816,0.520,0.988,0.692,0.339,0.581,0.551,�쓌,1.5,��
2022/06/11,12:40,0.555,0.816,0.521,0.987,0.692,0.340,0.581,0.552,��쓌,1.7,��
2022/06/11,12:50,0.556,0.815,0.520,0.983,0.690,0.339,0.581,0.553,��,1.2,��
2022/06/11,13:00,0.558,0.816,0.520,0.985,0.691,0.340,0.581,0.551,���쓌,2.0,��
2022/06/11,13:10,0.556,0.817,0.520,0.985,0.692,0.339,0.582,0.553,���k��,1.5,�L
2022/06/11,13:20,0.556,0.817,0.520,0.986,0.693,0.339,0.581,0.552,��쓌,1.4,�L
2022/06/11,13:30,0.555,0.816,0.520,0.986,0.694,0.339,0.579,0.551,�쓌,2.0,��
2022/06/11,13:40,0.557,0.817,0.520,0.985,0.692,0.340,0.582,0.552,���쓌,1.5,��
2022/06/11,13:50,0.556,0.815,0.518,0.987,0.692,0.340,0.581,0.549,��쓌,2.6,�L
2022/06/11,14:00,0.556,0.815,0.520,0.985,0.693,0.338,0.582,0.550,��,3.1,�L
2022/06/11,14:10,0.556,0.816,0.521,0.987,0.691,0.339,0.581,0.552,��쓌,2.0,�L
2022/06/11,14:20,0.556,0.818,0.521,0.988,0.691,0.339,0.581,0.550,��,2.9,�L
2022/06/11,14:30,0.555,0.817,0.520,0.988,0.693,0.339,0.582,0.551,��쓌,4.2,�L
2022/06/11,14:40,0.557,0.816,0.520,0.989,0.692,0.338,0.583,0.551,��쓌,2.9,�L
2022/06/11,14:50,0.556,0.813,0.522,0.987,0.692,0.339,0.582,0.550,��쓌,4.2,�L
2022/06/11,15:00,0.555,0.815,0.521,0.987,0.692,0.340,0.581,0.551,��쓌,3.1,�L
2022/06/11,15:10,0.556,0.814,0.520,0.987,0.690,0.341,0.581,0.551,��쓌,2.6,�L
2022/06/11,15:20,0.555,0.813,0.521,0.989,0.693,0.341,0.580,0.552,��,2.6,�L
2022/06/11,15:30,0.555,0.813,0.521,0.988,0.690,0.341,0.580,0.549,��쓌,3.7,�L
2022/06/11,15:40,0.554,0.812,0.520,0.988,0.690,0.340,0.581,0.550,��쓌,2.3,�L
2022/06/11,15:50,0.553,0.812,0.520,0.988,0.689,0.340,0.580,0.552,��쓌,3.6,��
2022/06/11,16:00,0.553,0.812,0.520,0.987,0.691,0.340,0.581,0.551,��,4.6,��
2022/06/11,16:10,0.553,0.812,0.520,0.989,0.689,0.340,0.580,0.551,��쓌,5.1,��
2022/06/11,16:20,0.554,0.813,0.519,0.988,0.689,0.340,0.579,0.551,��쓌,4.9,��
2022/06/11,16:30,0.553,0.811,0.521,0.988,0.688,0.341,0.579,0.551,��,6.9,��
2022/06/11,16:40,0.554,0.813,0.519,0.987,0.688,0.339,0.581,0.551,��,7.7,��
2022/06/11,16:50,0.554,0.812,0.521,0.987,0.688,0.339,0.580,0.551,��,7.6,��
2022/06/11,17:00,0.555,0.811,0.521,0.986,0.690,0.339,0.581,0.551,��,7.8,��
2022/06/11,17:10,0.553,0.811,0.519,0.989,0.691,0.339,0.581,0.551,��,8.0,��
2022/06/11,17:20,0.554,0.813,0.518,0.986,0.691,0.339,0.580,0.550,��,6.5,��
2022/06/11,17:30,0.554,0.810,0.519,0.986,0.689,0.339,0.580,0.551,��,7.2,��
2022/06/11,17:40,0.554,0.812,0.518,0.987,0.691,0.339,0.582,0.551,��,7.9,��
2022/06/11,17:50,0.554,0.813,0.518,0.987,0.690,0.339,0.581,0.551,��,7.9,�L
2022/06/11,18:00,0.553,0.809,0.520,0.986,0.689,0.338,0.580,0.552,��,7.7,�L
2022/06/11,18:10,0.552,0.811,0.519,0.987,0.690,0.339,0.580,0.551,��,6.6,�L
2022/06/11,18:20,0.553,0.811,0.519,0.988,0.690,0.340,0.580,0.550,��,6.2,�L
2022/06/11,18:30,0.553,0.812,0.519,0.987,0.690,0.339,0.580,0.551,��,4.2,�L
2022/06/11,18:40,0.554,0.813,0.520,0.987,0.693,0.339,0.580,0.550,��,4.5,�L
2022/06/11,18:50,0.553,0.812,0.519,0.989,0.691,0.339,0.581,0.551,��,4.9,�L
2022/06/11,19:00,0.553,0.811,0.521,0.988,0.691,0.338,0.579,0.551,��,4.7,�L
2022/06/11,19:10,0.553,0.812,0.519,0.987,0.691,0.339,0.580,0.550,��,4.3,��
2022/06/11,19:20,0.555,0.812,0.519,0.988,0.689,0.339,0.581,0.552,��,4.8,��
2022/06/11,19:30,0.555,0.812,0.519,0.986,0.689,0.339,0.579,0.553,��,4.6,��
2022/06/11,19:40,0.554,0.811,0.519,0.987,0.690,0.339,0.579,0.551,��,4.0,��
2022/06/11,19:50,0.553,0.810,0.520,0.984,0.689,0.340,0.581,0.552,��,2.6,��
2022/06/11,20:00,0.555,0.811,0.518,0.985,0.691,0.339,0.579,0.550,��쐼,3.3,��
2022/06/11,20:10,0.555,0.813,0.518,0.985,0.691,0.338,0.579,0.551,��,3.3,�L
2022/06/11,20:20,0.556,0.812,0.518,0.985,0.690,0.341,0.581,0.552,��,4.2,�L
2022/06/11,20:30,0.555,0.812,0.519,0.986,0.691,0.339,0.580,0.553,��,5.3,�L
2022/06/11,20:40,0.556,0.812,0.520,0.985,0.692,0.340,0.581,0.552,��,5.7,�L
2022/06/11,20:50,0.554,0.813,0.520,0.986,0.691,0.340,0.579,0.553,��,5.3,�L
2022/06/11,21:00,0.555,0.813,0.519,0.987,0.689,0.339,0.580,0.553,��,6.1,��
2022/06/11,21:10,0.555,0.813,0.521,0.987,0.691,0.339,0.581,0.552,��,6.5,��
2022/06/11,21:20,0.554,0.812,0.519,0.988,0.692,0.339,0.580,0.552,��,5.9,��
2022/06/11,21:30,0.554,0.811,0.519,0.986,0.691,0.340,0.580,0.553,��,4.3,��
2022/06/11,21:40,0.553,0.812,0.521,0.987,0.691,0.340,0.580,0.552,��,3.0,��
2022/06/11,21:50,0.554,0.812,0.519,0.985,0.692,0.340,0.582,0.551,��쐼,1.5,��
2022/06/11,22:00,0.556,0.811,0.519,0.985,0.691,0.341,0.580,0.554,��쐼,1.4,��
2022/06/11,22:10,0.555,0.810,0.520,0.986,0.691,0.341,0.581,0.553,��쐼,1.1,��
2022/06/11,22:20,0.556,0.812,0.521,0.986,0.691,0.340,0.580,0.552,��쐼,1.2,��
2022/06/11,22:30,0.553,0.814,0.519,0.988,0.692,0.341,0.579,0.552,��쐼,0.8,��
2022/06/11,22:40,0.555,0.812,0.520,0.987,0.692,0.340,0.580,0.554,-,CALM,��
2022/06/11,22:50,0.555,0.814,0.520,0.987,0.692,0.342,0.580,0.553,�k�k��,1.1,��
2022/06/11,23:00,0.555,0.809,0.520,0.987,0.692,0.341,0.580,0.553,�k�k��,1.1,��
2022/06/11,23:10,0.554,0.812,0.519,0.987,0.692,0.342,0.581,0.552,�k�k��,2.0,��
2022/06/11,23:20,0.556,0.814,0.520,0.986,0.693,0.342,0.582,0.553,�k�k��,3.0,��
2022/06/11,23:30,0.556,0.810,0.520,0.989,0.691,0.341,0.581,0.554,�k�k��,3.2,��
2022/06/11,23:40,0.555,0.813,0.520,0.986,0.693,0.342,0.582,0.553,�k,2.2,��
2022/06/11,23:50,0.555,0.811,0.520,0.986,0.692,0.342,0.579,0.552,�k,2.2,��
